カタログに戻る

ONEWEB-0404

運用中通信PO
NORAD 50484·PAYLOAD·🇬🇧 United Kingdom

打ち上げ Dec 27, 2021 から Baikonur Cosmodrome

Loading…

次のパス (今後24時間)

TLE

最新Source: CelesTrak SupGP

元期: Sep 15, 2026, 00:02 UTC

1 50484C 21132R   26258.00153194 -.00000127  00000+0 -35765-3 0  2584
2 50484  87.8972   3.2121 0001867 112.7756 347.9048 13.11415740    17

AllMySatでONEWEB-0404をリアルタイム追跡

Download on the App Store